Regional Weather Roundup
Issued by NWS

Home | Current Version | Previous Version | Graphics & Text | Print | Product List | Glossary On
Versions: 1 2 3 4 5 6 7 8 9 10 11 12 13 14 15 16 17 18 19 20 21 22 23 24 25 26 27
000
ASUS45 KCYS 191310
RWRWY

WYOMING REGIONAL WEATHER ROUNDUP
NATIONAL WEATHER SERVICE CHEYENNE WY
700 AM MDT TUE SEP 19 2017

NOTE:  "FAIR" INDICATES FEW OR NO CLOUDS BELOW 12,000 FEET
WITH NO SIGNIFICANT WEATHER AND/OR OBSTRUCTIONS TO VISIBILITY.

WYZ001-191400-
YELLOWSTONE NATIONAL PARK

CITY           SKY/WX    TMP DP  RH WIND       PRES   REMARKS
LK YELLOWSTONE   N/A     32  32 100 CALM      29.75S
W YELLOWSTONE  NOT AVBL

$$
WYZ002>013-054>058-071-098>099-191400-
NORTHERN WYOMING

CITY           SKY/WX    TMP DP  RH WIND       PRES   REMARKS
JACKSON        CLOUDY    37  35  92 S18G25    29.79R WCI  27
CODY           FAIR      44  41  89 W6        29.65S
GREYBULL       NOT AVBL
WORLAND        FAIR      50  47  89 SE6       29.59R
SHERIDAN       FAIR      51  43  74 NW12      29.59R
BUFFALO        MOCLDY    53  41  63 S7        29.58F
GILLETTE       CLOUDY    52  44  74 SW10      29.61R
HULETT         FAIR      55  39  54 CALM      29.62R
NEWCASTLE      FAIR      59  37  44 SE9G17    29.61R

$$
WYZ014>020-022>026-101>103-191400-
CENTRAL WYOMING

CITY           SKY/WX    TMP DP  RH WIND       PRES   REMARKS
BIG PINEY      LGT RAIN  39  37  92 N21G28    29.81R WCI  29
PINEDALE       LGT RAIN  37  36  93 NW16      29.81R WCI  28
DUBOIS         RAIN      36  32  87 NW15G22   29.70F WCI  26
LANDER           N/A    N/A N/A N/A MISG      29.65F
RIVERTON       MOCLDY    48  46  93 S12       29.66F
CASPER         FAIR      51  41  68 W13       29.70R
DOUGLAS        FAIR      54  38  54 NW12      29.68R

$$
WYZ021-027>030-104>119-191400-
SOUTHERN WYOMING

CITY           SKY/WX    TMP DP  RH WIND       PRES   REMARKS
EVANSTON       CLOUDY    45  44  97 W12       29.84R
KEMMERER       LGT RAIN  41  39  93 W22G28    29.82S
FORT BRIDGER   FAIR      46  45  93 W20       29.83S
ROCK SPRINGS   MOCLDY    45  38  76 SW6       29.81F
DIXON          FAIR      61  21  21 S20G26    29.83S
RAWLINS        FAIR      51  38  60 W20G25    29.79R
SARATOGA       FAIR      59  21  23 SW24G33   29.80S
LARAMIE        FAIR      52  20  28 SE9       29.82S
CHEYENNE       FAIR      51  30  44 W7        29.78S
TORRINGTON     FAIR      51  48  89 E9        29.64F
PINE BLUFFS    FAIR      45  39  81 MISG      29.73S

$$




USA.gov is the U.S. government's official web portal to all federal, state and local government web resources and services.